Temp
9 9 9 9 9 11 10 10 10 11 11 12 11 12 14 15 15 15 16 16 17 17 19 18 17 16 16 15 14 13 13 13 13 12 12 12 12 12 13 14 14 14 13 13
8 9 10 9 9 10 10 10 10 10 11 10 11 11 12 13 14 15 16 17 18 17 18 18 18 17 16 17 16 14 14 13 13 13 13 12 12 13 13 13 14 13 13 13
10 10 11 9 8 9 9 9 10 11 10 11 11 10 12 11 14 15 15 17 17 18 18 18 18 18 18 17 17 16 16 15 14 13 13 12 12 12 12 12 13 14 14 14
8 10 10 9 9 9 9 9 10 10 10 9 11 10 11 12 12 12 15 16 17 17 18 18 19 19 19 18 18 18 16 16 15 14 13 13 13 13 13 14 14 14 14 14
9 8 9 9 9 9 10 10 9 9 9 10 10 10 10 11 12 11 13 15 16 18 18 18 18 18 19 19 19 18 18 17 15 15 14 13 13 13 13 13 14 13 14 13
9 9 10 9 9 10 9 9 9 8 8 9 11 10 12 12 11 12 14 16 17 18 18 18 18 18 18 18 18 18 18 18 17 15 15 14 13 13 13 14 14 14 14 14
8 8 8 10 9 9 10 8 9 9 9 9 10 8 12 12 12 12 14 15 17 18 18 18 17 18 18 18 18 17 18 18 18 17 15 15 15 14 13 14 14 14 15 15
8 7 7 8 9 9 9 10 9 9 8 9 8 9 11 11 15 15 16 17 16 17 17 18 18 18 18 18 18 18 18 18 18 17 17 16 15 15 14 14 14 15 15 15
7 8 8 8 9 10 8 9 10 9 0 5 7 8 11 10 10 13 14 15 16 17 17 17 17 17 18 18 19 18 18 18 18 18 18 17 16 16 15 15 14 14 14 15
7 8 7 7 9 9 9 10 8 8 8 7 8 7 11 12 11 12 15 15 16 17 17 16 17 17 17 18 19 18 17 17 17 18 17 18 17 16 16 15 15 15 15 14
8 7 5 7 8 9 8 9 8 9 7 8 8 11 8 12 12 13 13 14 15 16 17 17 17 17 17 17 18 18 18 17 16 16 16 16 17 17 16 15 15 15 14 14
7 6 4 6 7 8 10 10 10 9 8 7 6 11 11 10 9 10 12 14 15 16 16 15 15 16 16 16 17 17 17 16 16 16 15 15 15 15 14 14 14 13 13 13
7 6 6 5 6 5 7 8 9 10 8 10 7 12 10 9 10 14 12 14 14 14 15 15 15 15 15 15 15 15 16 15 14 14 14 14 14 14 13 13 13 12 12 11
8 5 6 7 7 8 7 9 8 8 8 9 10 12 12 11 11 11 13 13 14 15 15 15 15 15 15 15 14 14 15 15 15 15 15 14 14 13 13 12 12 11 11 10
7 6 5 7 6 6 7 8 8 8 8 8 11 11 12 12 11 14 15 13 13 14 14 15 15 15 15 15 15 15 15 15 15 15 15 14 14 14 13 13 12 12 11 10
5 4 6 6 5 7 7 7 7 8 8 8 9 10 13 14 14 13 14 13 13 14 15 15 14 14 14 15 14 14 14 14 14 14 14 14 14 14 13 13 12 12 11 10
3 4 5 4 6 4 6 7 7 7 8 10 9 11 12 11 10 12 14 15 14 15 15 14 14 14 14 14 14 14 13 13 13 13 13 13 13 13 12 12 12 11 10 10
1 1 -1 -1 2 4 8 8 9 8 8 9 10 10 11 12 13 14 15 15 14 16 15 14 13 13 13 14 14 13 12 12 12 12 12 12 11 11 11 11 11 10 10 9
3 3 -1 -1 -3 6 6 9 7 7 8 10 10 10 11 11 12 12 14 15 15 16 16 14 13 13 13 13 13 12 12 12 11 11 10 10 9 9 9 9 9 9 8 8
3 4 3 -4 -2 2 9 8 11 9 8 11 10 10 10 10 10 12 13 14 15 15 14 13 13 12 12 12 12 12 11 11 10 10 10 9 9 8 9 8 8 8 8 7
3 3 3 3 1 3 6 8 9 7 9 12 12 11 11 10 12 13 13 14 14 14 13 13 12 11 10 10 10 11 10 10 9 8 8 8 8 8 8 8 8 7 6 3
3 3 3 3 4 4 7 6 8 9 10 11 11 11 11 11 12 12 12 12 12 12 11 10 10 9 9 9 9 9 9 9 8 7 7 8 8 8 8 8 7 7 5 3
4 4 5 5 5 3 4 1 1 1 4 7 8 11 11 12 11 11 11 11 10 9 9 8 7 8 8 8 8 8 8 8 8 7 8 8 8 8 8 7 7 7 6 4
2 -5 2 4 1 -3 -3 -1 -1 -2 -1 3 6 8 8 10 9 8 8 7 6 6 5 6 5 7 8 7 7 7 7 7 7 7 7 7 7 7 6 6 6 6 5 4
-6 -7 -6 0 -3 -3 -3 -5 -6 -4 -2 2 3 5 7 7 6 6 6 4 4 4 4 4 5 6 6 6 6 6 6 6 6 6 6 6 6 6 6 5 5 4 3 3
-13 -13 -9 -4 -11 -11 -9 -7 -8 -7 -7 -2 0 2 2 2 4 4 3 2 2 2 2 3 3 4 4 4 4 4 4 4 3 4 5 5 5 5 4 4 3 3 2 1
Height
1539 1541 1537 1538 1543 1544 1547 1549 1550 1546 1543 1544 1544 1538 1533 1532 1532 1531 1530 1529 1529 1529 1532 1534 1536 1538 1540 1542 1544 1545 1549 1551 1554 1556 1559 1561 1561 1563 1565 1567 1570 1572 1574 1576
1540 1530 1534 1540 1543 1545 1548 1549 1550 1546 1542 1546 1543 1537 1529 1527 1527 1524 1524 1524 1522 1524 1527 1527 1530 1532 1533 1535 1537 1541 1542 1546 1547 1549 1553 1555 1557 1558 1561 1563 1565 1567 1569 1572
1528 1528 1532 1538 1543 1547 1548 1550 1549 1548 1545 1541 1541 1535 1523 1519 1518 1516 1516 1516 1517 1516 1518 1521 1523 1524 1526 1527 1530 1533 1535 1538 1541 1544 1547 1550 1553 1554 1555 1556 1559 1561 1564 1566
1532 1526 1529 1534 1537 1541 1546 1544 1546 1548 1551 1555 1541 1540 1519 1513 1512 1509 1506 1506 1506 1509 1511 1513 1514 1516 1517 1520 1524 1527 1530 1531 1534 1538 1540 1542 1543 1544 1547 1550 1554 1556 1559 1560
1523 1525 1528 1531 1530 1537 1540 1540 1543 1546 1550 1549 1543 1546 1514 1510 1507 1503 1498 1497 1497 1500 1502 1502 1504 1508 1511 1515 1516 1519 1522 1524 1527 1530 1532 1535 1537 1539 1542 1545 1547 1550 1553 1555
1519 1519 1522 1523 1528 1531 1536 1543 1546 1550 1552 1552 1528 1542 1507 1504 1502 1496 1492 1490 1490 1491 1491 1493 1496 1499 1501 1506 1509 1511 1513 1516 1519 1523 1525 1526 1529 1533 1534 1535 1538 1541 1545 1548
1518 1517 1520 1521 1526 1531 1535 1545 1547 1547 1548 1537 1521 1537 1503 1495 1493 1491 1487 1485 1483 1483 1484 1485 1487 1490 1491 1493 1496 1501 1503 1506 1510 1513 1517 1519 1520 1525 1527 1529 1531 1534 1537 1538
1514 1521 1518 1520 1522 1526 1532 1534 1537 1538 1541 1528 1527 1524 1494 1486 1482 1481 1480 1478 1478 1477 1478 1478 1480 1482 1483 1483 1486 1490 1494 1497 1501 1504 1508 1511 1514 1516 1518 1521 1523 1524 1526 1529
1513 1512 1510 1513 1517 1522 1529 1526 1527 1534 1566 1548 1524 1505 1488 1483 1482 1478 1474 1471 1469 1469 1473 1473 1475 1477 1478 1477 1478 1481 1485 1489 1492 1495 1499 1503 1506 1508 1509 1512 1515 1516 1518 1520
1506 1510 1511 1512 1514 1514 1516 1522 1533 1532 1533 1538 1517 1512 1489 1479 1480 1474 1469 1463 1462 1463 1466 1467 1469 1471 1473 1473 1472 1474 1477 1480 1484 1488 1491 1495 1499 1501 1504 1505 1506 1508 1511 1512
1501 1511 1520 1512 1510 1511 1516 1519 1524 1520 1525 1521 1513 1491 1477 1470 1468 1466 1460 1459 1460 1461 1461 1462 1464 1466 1466 1468 1468 1469 1470 1473 1476 1479 1484 1488 1492 1494 1496 1497 1499 1500 1503 1505
1500 1509 1517 1509 1507 1507 1506 1506 1511 1515 1512 1515 1520 1480 1463 1464 1464 1465 1458 1458 1456 1457 1456 1458 1461 1463 1462 1465 1465 1465 1466 1467 1471 1474 1477 1482 1486 1488 1489 1490 1492 1494 1495 1498
1498 1503 1510 1513 1512 1508 1503 1505 1506 1503 1510 1500 1515 1458 1456 1460 1461 1459 1456 1454 1453 1455 1455 1457 1458 1460 1460 1462 1462 1462 1463 1465 1468 1469 1472 1476 1478 1480 1481 1482 1484 1486 1488 1489
1491 1497 1497 1495 1497 1494 1498 1498 1501 1506 1501 1484 1490 1448 1461 1460 1461 1460 1456 1455 1452 1452 1454 1456 1458 1460 1460 1462 1463 1463 1463 1464 1465 1466 1469 1470 1472 1473 1474 1476 1476 1477 1479 1481
1492 1491 1496 1491 1493 1494 1491 1490 1493 1496 1486 1495 1460 1464 1448 1459 1462 1459 1457 1459 1456 1455 1454 1456 1457 1458 1459 1460 1462 1464 1464 1464 1464 1465 1465 1466 1466 1466 1466 1467 1468 1469 1471 1473
1488 1492 1490 1488 1492 1490 1488 1485 1484 1476 1474 1481 1464 1461 1439 1452 1453 1454 1455 1457 1455 1452 1453 1455 1457 1458 1457 1458 1460 1461 1462 1462 1461 1462 1462 1462 1461 1461 1460 1460 1461 1463 1464 1465
1488 1488 1491 1491 1485 1491 1479 1458 1467 1474 1468 1463 1461 1431 1450 1450 1448 1446 1448 1448 1449 1450 1450 1452 1454 1456 1456 1455 1456 1457 1458 1458 1457 1456 1456 1455 1455 1455 1455 1456 1456 1457 1458 1459
1488 1495 1503 1505 1494 1489 1448 1453 1452 1454 1446 1453 1447 1433 1435 1437 1442 1444 1442 1439 1441 1443 1446 1448 1450 1451 1452 1452 1452 1453 1453 1452 1452 1451 1451 1450 1450 1451 1451 1452 1452 1453 1454 1455
1479 1487 1503 1508 1513 1464 1451 1438 1449 1454 1434 1437 1432 1416 1418 1436 1439 1427 1426 1432 1434 1435 1437 1442 1445 1446 1448 1448 1448 1448 1448 1447 1447 1446 1446 1446 1446 1446 1447 1448 1449 1450 1451 1452
1470 1474 1483 1507 1503 1476 1410 1431 1432 1436 1432 1406 1418 1408 1409 1429 1432 1395 1421 1424 1426 1428 1431 1435 1438 1440 1443 1444 1445 1444 1443 1443 1444 1443 1444 1444 1443 1444 1444 1445 1446 1446 1448 1448
1467 1472 1473 1470 1478 1448 1412 1423 1430 1443 1412 1394 1394 1385 1396 1407 1388 1395 1409 1414 1418 1422 1425 1429 1432 1434 1436 1439 1440 1439 1440 1441 1442 1443 1443 1443 1443 1442 1442 1443 1444 1444 1445 1447
1455 1460 1458 1463 1461 1439 1409 1416 1420 1405 1395 1395 1391 1386 1386 1387 1391 1399 1407 1409 1412 1414 1417 1422 1425 1428 1431 1433 1434 1436 1437 1439 1442 1443 1443 1442 1442 1442 1441 1441 1442 1442 1443 1444
1444 1436 1434 1434 1421 1413 1408 1411 1418 1412 1400 1392 1391 1387 1386 1387 1389 1392 1397 1402 1405 1409 1414 1418 1423 1424 1427 1429 1432 1434 1435 1438 1441 1443 1443 1443 1442 1442 1441 1440 1440 1440 1440 1440
1432 1436 1430 1424 1413 1416 1410 1406 1415 1411 1402 1393 1388 1384 1384 1383 1384 1386 1389 1394 1401 1406 1412 1416 1421 1421 1422 1427 1431 1433 1435 1437 1440 1442 1442 1442 1441 1441 1440 1439 1438 1437 1437 1438
1443 1440 1438 1420 1417 1417 1410 1412 1417 1408 1404 1394 1386 1382 1380 1381 1381 1384 1387 1395 1402 1405 1411 1414 1418 1419 1422 1426 1430 1432 1435 1437 1438 1439 1440 1440 1438 1438 1438 1438 1438 1436 1436 1436
1456 1455 1446 1428 1442 1432 1419 1418 1413 1409 1405 1393 1386 1385 1384 1388 1382 1383 1387 1396 1400 1405 1408 1412 1415 1418 1422 1425 1427 1430 1433 1435 1436 1438 1438 1438 1437 1438 1437 1436 1435 1435 1434 1435
Wind_Speed
7 4 13 15 4 0 4 4 7 2 6 4 8 17 18 24 23 19 22 26 34 35 27 28 29 27 27 30 34 36 38 39 38 41 38 37 36 32 30 30 26 25 25 24
4 17 9 7 3 1 1 1 2 4 6 5 8 14 11 16 17 28 32 32 30 34 33 32 30 32 32 28 31 35 36 39 38 42 43 40 38 36 31 31 30 28 27 27
15 2 16 8 5 7 5 7 2 3 6 3 3 10 14 8 26 32 34 35 37 34 35 35 34 36 35 35 33 32 34 37 38 39 43 43 41 39 37 36 35 32 30 30
11 7 10 8 14 11 13 8 5 5 3 4 1 7 9 5 15 13 32 38 42 42 39 37 36 35 34 33 35 33 35 36 38 39 43 45 46 45 42 39 36 34 33 32
7 11 11 12 7 9 5 6 10 6 7 5 5 6 7 6 12 11 22 33 41 45 44 44 45 43 42 37 38 35 36 39 39 40 44 44 46 46 44 43 41 38 36 35
5 3 11 9 6 14 8 4 4 4 2 11 21 9 8 10 7 8 17 34 40 40 42 46 44 41 45 44 44 44 43 43 40 40 42 46 45 45 46 47 44 42 40 39
5 7 3 0 6 4 9 5 3 5 5 10 7 8 21 7 8 11 18 29 36 38 38 37 37 39 38 40 43 46 43 46 44 42 42 42 45 45 46 46 46 45 43 43
10 5 13 6 7 2 15 13 4 6 5 6 3 8 8 11 27 31 36 37 33 31 29 28 32 30 31 32 34 38 42 44 47 45 41 40 41 44 44 44 44 43 44 44
6 7 1 6 7 10 4 15 5 3 2 2 5 9 6 8 9 16 29 37 42 42 37 30 25 25 24 26 30 35 40 43 47 48 43 42 38 39 41 41 43 43 43 43
3 1 2 3 7 11 8 7 5 6 5 6 6 6 8 1 10 12 18 29 36 33 30 30 30 28 28 25 22 26 32 39 43 45 47 43 39 37 37 39 41 40 40 42
3 3 3 3 8 13 7 7 6 2 4 4 4 8 8 16 14 15 18 20 24 26 20 19 19 21 22 23 23 23 28 31 34 38 42 46 41 38 38 40 40 39 39 39
10 2 4 8 4 7 14 18 14 6 6 3 1 13 5 6 8 14 25 27 20 16 11 13 14 16 16 17 15 18 22 23 25 27 33 39 41 40 40 40 39 38 38 37
10 6 5 3 3 3 9 12 14 21 5 16 3 19 4 5 8 14 14 12 11 10 9 9 7 5 10 13 11 10 11 14 19 24 29 32 35 36 37 37 36 35 35 34
21 4 11 18 6 4 8 15 18 14 8 25 18 36 13 8 5 10 14 17 15 16 14 11 9 7 6 4 3 2 5 9 13 17 22 26 28 30 32 33 34 34 33 33
5 7 7 14 9 3 2 9 18 22 27 10 30 27 28 14 9 21 23 17 16 16 12 12 10 9 8 6 5 5 6 7 8 10 13 16 19 23 26 29 31 32 32 31
5 3 3 14 12 19 18 13 13 25 27 24 32 28 18 15 26 26 29 20 22 22 18 15 12 11 9 7 8 11 12 14 15 16 15 16 17 18 19 20 21 23 25 27
5 4 4 7 5 7 11 32 23 17 17 22 22 36 9 13 12 25 32 28 31 29 25 19 14 14 11 10 14 17 18 19 20 20 19 18 18 17 16 16 16 17 17 17
5 4 2 4 3 7 10 3 23 29 28 22 25 29 27 30 34 31 36 39 36 37 32 22 19 15 14 15 18 20 20 19 20 20 19 18 17 16 15 14 13 12 13 14
12 5 3 3 5 10 15 22 7 10 28 27 30 35 37 30 17 33 45 39 41 35 28 25 20 17 18 17 18 17 17 16 16 16 15 14 13 13 12 12 12 11 11 12
15 15 7 2 5 10 30 4 15 6 20 29 26 33 30 16 13 27 28 38 35 29 26 26 23 20 18 17 16 16 15 15 13 12 12 12 12 12 11 10 10 10 9 9
5 7 18 16 6 10 6 9 14 12 12 4 33 47 34 18 37 33 25 29 34 30 30 26 22 19 18 16 15 14 12 10 9 8 7 6 6 6 5 6 7 7 7 6
11 8 8 11 10 18 5 7 20 15 13 10 14 32 29 45 39 30 28 26 30 33 30 25 21 18 15 13 11 10 8 6 5 3 2 1 0 1 2 3 5 6 6 5
7 7 7 11 8 0 4 4 14 17 12 8 14 12 17 31 35 36 34 33 33 30 27 23 20 18 16 14 13 11 10 9 7 4 3 2 2 3 4 4 5 6 7 7
2 8 4 1 2 7 11 10 11 20 21 15 12 16 16 21 29 33 33 35 32 28 24 22 20 19 17 16 14 12 10 9 8 5 4 3 2 2 2 3 4 5 5 6
4 7 5 6 5 12 3 19 24 21 18 10 8 8 10 15 22 29 33 31 28 26 24 21 19 18 19 17 15 13 12 9 7 5 3 2 3 4 4 4 4 4 5 5
9 5 2 1 11 9 13 23 29 26 23 14 8 2 6 17 24 29 30 27 26 24 23 22 22 21 20 18 16 14 12 11 9 6 5 4 4 3 4 4 5 5 4 4
Wind_Direction
177 179 209 198 166 297 160 184 207 227 245 180 227 251 254 254 260 257 245 246 241 238 243 243 240 238 236 234 230 228 229 233 234 235 231 234 237 237 237 237 237 235 236 236
156 221 200 142 153 172 21 140 262 290 261 179 261 260 254 243 248 249 250 250 248 242 240 241 244 240 236 236 236 230 231 233 234 230 234 237 240 242 245 244 241 238 238 240
202 261 179 163 161 205 214 216 203 248 338 248 296 272 266 246 243 251 254 255 254 246 240 246 247 246 238 238 235 236 236 234 233 231 234 237 241 243 246 246 242 239 239 239
226 231 175 183 210 183 232 173 189 251 311 246 95 283 262 256 238 235 247 248 250 249 247 248 245 241 235 238 243 241 241 240 237 232 235 237 238 241 245 246 246 244 243 242
206 174 179 198 181 159 228 170 199 224 251 331 241 272 270 222 241 240 245 251 251 253 251 249 245 242 245 249 247 246 248 244 241 238 236 239 241 244 248 251 251 248 247 247
200 105 184 191 167 186 146 80 60 63 175 254 244 216 247 239 211 252 245 256 259 255 254 252 252 249 248 250 249 252 247 245 244 241 239 240 243 245 247 248 249 251 250 250
178 202 336 61 166 142 176 144 215 215 201 239 189 209 244 271 278 249 258 261 266 263 258 256 254 253 254 252 251 247 244 241 243 243 242 241 244 246 250 252 253 254 255 255
204 205 196 193 208 149 196 195 205 209 198 254 125 229 243 220 238 247 253 263 266 267 263 261 260 256 250 250 246 245 242 243 243 242 243 245 244 246 250 253 256 256 257 259
176 236 104 200 169 160 174 213 200 358 123 26 219 277 289 255 262 259 260 256 258 262 261 263 254 262 256 250 246 242 243 243 242 243 243 245 247 248 251 254 255 258 261 262
185 223 181 210 162 207 169 140 190 210 219 246 246 264 237 241 243 254 261 255 257 266 268 261 258 256 252 250 244 241 244 246 247 247 244 247 250 251 253 256 257 261 264 265
107 135 267 146 207 192 192 207 225 327 175 218 269 257 210 215 222 231 246 274 270 263 262 254 252 250 249 249 244 242 243 245 246 246 247 245 249 254 257 257 260 263 266 269
190 201 215 219 214 226 234 216 198 211 207 260 31 264 177 216 266 272 271 279 273 247 236 233 242 248 246 246 244 240 240 240 244 247 249 249 252 255 258 261 264 267 270 272
161 215 238 303 298 217 214 223 242 235 291 243 168 255 202 234 254 271 266 252 219 212 186 182 182 214 235 238 239 238 241 245 243 244 247 249 253 257 260 264 266 268 270 272
170 185 210 232 236 170 203 219 222 244 230 244 240 263 250 267 286 290 263 240 204 181 171 173 168 151 127 115 120 170 224 242 247 246 247 248 251 253 256 260 263 267 267 265
213 218 226 244 237 228 312 223 209 215 232 248 248 253 253 248 257 269 269 256 214 200 197 199 200 204 199 205 222 234 245 249 250 251 251 251 252 253 254 256 258 260 260 260
188 252 228 260 262 256 247 237 248 222 226 234 245 260 253 250 241 245 251 245 235 218 218 222 228 224 215 226 253 264 267 265 264 264 264 261 259 259 260 261 260 261 261 261
157 181 234 264 240 313 246 236 236 250 246 229 242 245 270 249 227 231 243 234 236 234 229 231 237 232 237 256 269 272 272 270 268 267 267 265 262 262 262 263 264 264 263 263
156 143 114 252 47 252 247 319 227 229 238 227 244 255 254 246 248 251 249 255 244 245 239 232 227 225 247 264 270 273 275 272 268 265 263 262 260 259 257 256 258 259 260 259
213 164 251 212 203 285 296 278 204 212 252 232 234 244 249 246 254 246 240 243 252 249 241 225 219 235 250 257 261 266 269 268 268 265 259 255 252 252 252 253 256 262 265 267
203 211 200 132 194 224 257 151 237 196 256 244 225 242 242 197 230 248 232 235 243 243 222 211 219 229 233 237 246 253 258 262 262 259 255 250 245 242 243 247 252 258 258 269
177 193 218 235 253 264 264 194 164 182 242 228 223 230 228 206 222 238 234 231 232 220 206 211 215 211 209 217 226 233 239 244 245 240 236 236 241 251 263 272 281 285 289 288
185 185 207 224 236 253 199 188 192 233 287 303 308 240 217 222 232 233 234 227 210 197 197 201 203 201 202 201 202 200 193 189 174 157 164 158 20 323 315 316 314 315 311 303
223 206 202 197 216 10 91 36 323 341 306 311 302 305 248 234 234 233 224 206 193 192 191 193 196 192 187 182 176 171 157 147 134 124 105 64 26 0 345 333 318 305 301 301
235 19 236 5 342 348 21 12 321 335 331 325 300 288 269 246 236 215 196 188 185 183 184 183 185 179 175 170 167 163 155 147 143 143 131 110 78 26 5 356 344 335 328 318
346 332 351 273 6 331 246 10 345 333 323 323 333 294 275 251 209 196 179 176 176 175 174 173 172 165 160 158 158 155 152 148 136 136 121 101 59 36 25 25 20 13 6 359
348 0 298 310 354 318 293 308 337 334 330 350 356 341 193 203 179 175 168 171 170 167 163 163 161 160 156 154 153 151 147 138 133 126 98 75 67 73 89 85 73 54 39 18